Theta_e
351 351 351 351 353 354 354 353 353 353 354 354 355 355 356 356 356 356 357 356 354 354 353 353 354 355 356 355 354 355 356 356 356 354 353 353 352 352 353 353 355 355
352 353 353 353 354 354 355 354 353 353 353 354 354 355 355 355 356 356 355 355 354 352 352 354 355 355 355 356 356 356 356 357 355 354 354 352 352 351 352 352 355 355
351 353 354 354 354 354 354 354 354 353 352 353 354 354 355 355 355 355 355 354 353 352 353 355 356 355 355 356 356 356 356 356 355 355 355 354 352 352 350 351 353 355
350 352 354 353 352 354 354 354 354 354 352 353 354 355 355 355 354 355 355 355 353 352 354 356 356 355 355 355 355 356 356 356 355 356 356 355 354 354 352 350 351 353
350 351 352 353 353 352 353 354 354 354 354 355 356 356 355 355 355 355 356 355 354 354 354 355 355 356 355 354 354 355 357 357 357 357 357 356 355 356 355 352 351 353
350 350 350 352 352 352 353 353 353 354 355 356 357 357 356 355 356 356 356 356 355 355 355 355 356 356 356 355 355 356 357 358 358 359 358 357 356 357 358 356 354 353
351 349 349 351 352 353 353 352 353 354 354 355 356 357 357 356 356 357 357 356 356 355 356 356 356 356 357 357 357 357 357 358 358 358 359 358 357 356 357 358 357 355
352 349 348 351 352 354 354 353 352 354 354 354 355 356 357 358 357 357 357 357 356 357 358 357 356 355 357 357 358 357 355 355 356 357 357 356 355 354 355 357 358 357
353 350 349 350 352 353 354 354 353 354 354 355 355 355 356 357 358 358 358 358 357 358 358 357 357 356 356 357 357 357 354 353 354 356 356 355 355 354 354 355 357 356
354 353 351 352 353 353 354 355 355 355 355 355 355 355 354 355 356 358 358 358 357 358 358 357 357 356 357 356 357 358 355 354 354 356 356 356 355 354 354 355 356 355
356 355 355 354 353 353 354 354 356 355 356 355 355 355 355 354 354 355 356 357 358 358 358 357 356 356 357 357 357 357 357 356 355 355 356 356 355 354 354 355 356 355
356 356 356 356 355 355 354 354 354 355 355 355 355 356 355 354 353 352 353 355 357 358 357 357 357 356 357 357 357 357 358 358 356 355 356 355 354 354 353 355 355 355
357 356 357 357 356 356 355 354 355 355 355 355 354 355 355 354 353 352 352 352 354 355 356 356 356 357 356 356 356 357 357 358 358 356 355 354 354 354 354 353 353 353
355 357 357 357 356 356 356 355 356 355 355 355 355 355 355 355 353 352 351 351 351 352 353 354 355 356 356 356 356 356 356 356 357 357 356 356 355 354 353 353 354 354
352 354 355 355 354 355 356 356 355 355 355 354 355 354 355 354 354 353 352 351 351 351 351 352 354 354 354 355 355 355 354 354 354 355 356 356 355 355 353 353 353 354
349 350 351 351 352 353 355 355 355 354 354 353 353 353 353 352 352 351 351 352 351 351 351 351 352 352 352 352 352 353 354 354 353 353 354 354 354 354 353 352 352 353
350 349 349 349 350 351 351 353 353 353 352 352 350 350 350 349 349 350 350 350 351 350 351 352 352 351 350 350 351 352 353 353 353 353 353 353 353 353 353 352 351 351
351 352 352 351 351 350 350 350 350 350 350 350 350 350 350 350 350 350 350 350 351 350 350 350 350 350 350 350 350 350 351 352 353 352 353 353 352 352 351 351 352 351
348 349 350 352 352 352 352 353 352 351 351 352 351 351 351 350 350 350 351 351 351 351 350 350 349 349 349 349 350 349 350 351 353 352 353 352 352 352 351 351 351 351
342 343 345 346 347 348 350 352 352 353 353 353 353 352 352 352 352 352 351 351 351 351 350 350 349 349 348 348 349 349 349 350 352 352 352 352 352 352 351 351 350 350
339 340 341 342 343 344 345 347 348 349 350 351 352 353 353 353 354 353 353 352 352 352 351 350 349 349 349 349 348 348 348 348 350 351 352 353 353 352 352 351 350 351
336 337 338 340 343 343 341 341 341 343 346 348 349 350 350 351 352 353 353 353 353 353 353 352 351 350 349 350 349 348 347 347 349 350 352 352 352 352 351 351 351 352
330 333 335 338 341 342 338 336 336 338 342 345 346 347 348 349 350 351 352 353 353 353 353 353 353 352 352 351 351 351 350 349 349 350 351 352 352 352 352 352 351 352
326 328 332 336 339 341 338 335 336 338 341 343 344 345 347 349 351 352 352 352 352 352 353 353 353 353 353 353 352 352 352 351 350 349 350 351 351 351 352 352 352 352
326 326 329 334 337 338 336 334 337 340 341 343 344 346 348 349 349 349 349 350 352 353 353 353 354 354 353 354 353 353 353 353 352 352 351 351 351 351 352 351 352 352
328 326 327 330 333 334 333 334 339 342 342 342 342 342 342 341 340 341 342 343 347 349 351 353 354 353 354 354 354 353 354 353 353 352 352 352 352 352 352 351 352 352
Wind_Speed
18 18 18 17 16 16 15 15 15 15 14 14 15 15 14 13 12 12 12 11 11 11 11 11 11 11 11 10 9 10 11 11 9 10 10 10 9 9 9 7 6 6
19 18 18 17 16 16 15 15 15 15 15 15 14 14 14 13 13 12 12 11 11 12 11 11 11 11 10 10 10 11 12 11 10 9 10 10 10 10 10 9 7 7
21 19 19 18 17 17 16 15 14 15 16 15 15 14 14 14 13 13 12 11 12 12 12 12 11 11 11 11 11 11 12 11 11 10 10 10 9 9 10 9 9 9
24 22 21 19 18 17 17 17 15 15 16 16 15 15 14 14 14 13 12 12 13 13 13 13 12 11 11 12 12 12 12 12 11 10 10 10 9 9 9 9 10 10
25 25 23 21 18 17 19 19 18 16 17 17 16 15 15 14 14 14 13 13 13 14 14 14 13 12 12 13 13 13 12 12 11 11 12 12 11 10 10 10 11 12
25 26 25 23 19 17 20 21 20 18 17 17 17 16 15 15 15 15 15 15 15 14 15 15 15 14 13 14 14 14 14 14 13 13 14 14 13 13 12 11 12 13
25 25 26 25 21 19 20 21 21 20 19 18 17 17 16 16 17 16 16 16 16 16 16 16 17 17 16 16 16 16 16 16 16 15 16 16 16 15 15 14 13 14
25 25 26 25 23 21 21 21 21 21 20 18 18 18 17 18 18 17 17 17 18 18 18 19 19 19 18 17 17 17 17 17 17 16 17 17 17 17 16 16 15 15
24 24 25 25 25 23 22 22 22 21 21 20 20 19 19 19 18 18 18 19 19 19 19 20 20 20 19 19 18 17 17 18 18 17 17 17 17 17 17 16 16 17
24 24 25 26 26 25 25 24 23 22 22 21 21 20 20 20 20 19 19 20 21 21 20 20 21 21 21 20 20 19 18 18 18 18 18 17 18 18 17 16 17 17
21 22 24 26 26 27 26 26 25 24 24 23 23 22 22 21 21 22 21 21 22 22 22 22 22 22 22 22 21 21 20 19 19 19 19 19 19 19 18 18 17 18
17 19 21 24 26 27 27 27 27 26 26 25 25 24 23 23 23 23 23 23 23 23 23 23 23 23 23 23 23 22 22 21 20 20 19 19 19 19 19 19 19 19
23 22 21 22 24 26 27 28 28 28 27 25 25 25 25 25 25 24 24 24 24 25 25 24 23 24 25 24 24 24 24 24 23 23 21 20 20 19 19 19 19 19
24 26 25 23 22 24 27 28 28 28 27 25 24 24 25 25 26 26 26 25 25 26 26 26 25 25 26 26 25 25 25 26 27 26 26 24 23 21 20 19 19 20
20 23 24 22 21 22 25 27 27 26 25 25 24 23 24 24 25 27 27 27 27 27 28 28 28 27 27 27 27 26 26 26 27 28 28 28 27 25 24 22 22 22
14 16 18 19 21 23 24 25 25 24 23 23 22 22 22 22 23 26 27 28 28 28 29 29 30 30 29 29 28 27 27 27 28 29 29 29 29 28 27 26 25 24
6 8 12 15 18 21 22 22 22 22 22 20 19 19 19 18 20 22 25 28 29 29 29 30 31 32 31 31 30 29 29 29 29 30 30 30 30 30 30 30 28 27
4 2 4 8 11 14 17 18 18 19 20 19 18 17 16 15 16 18 20 23 26 28 30 30 31 32 32 31 31 31 31 31 32 32 32 32 32 32 32 32 31 30
11 8 5 3 1 3 6 9 11 12 13 14 15 16 16 16 16 16 16 18 20 23 26 28 30 31 31 31 31 32 32 33 33 34 33 34 33 33 33 33 33 32
13 13 10 8 7 7 5 2 2 4 6 8 9 11 13 15 16 16 16 16 17 19 21 23 24 26 27 28 29 31 32 33 35 35 35 34 34 34 34 34 33 33
12 13 12 9 8 9 9 8 7 3 1 3 5 5 7 9 12 14 16 16 16 16 17 18 19 19 21 23 26 28 29 31 34 35 35 35 35 35 35 35 35 34
13 14 13 11 9 10 12 11 9 7 5 4 2 2 4 6 8 11 13 14 14 13 13 14 16 16 18 20 22 24 26 28 32 34 35 36 36 37 37 36 36 35
15 14 15 14 12 11 13 12 10 7 5 6 6 6 5 5 7 10 11 10 10 10 10 11 13 15 16 17 18 18 20 24 28 32 34 36 36 37 37 36 36 36
17 16 15 14 10 8 10 13 11 9 6 6 7 7 7 5 6 10 10 8 6 5 6 7 9 11 12 13 14 15 16 18 21 25 29 33 36 37 36 36 36 36
16 15 15 13 10 9 11 13 13 10 8 6 6 7 7 7 7 8 9 8 6 4 4 4 6 7 8 9 11 12 14 15 16 18 21 26 29 32 34 34 36 37
13 14 14 14 12 10 11 12 13 12 11 10 10 10 9 10 9 10 10 10 8 7 6 5 6 7 7 8 10 11 12 13 14 15 18 20 22 24 27 28 30 31
Wind_Direction
219 219 220 221 221 223 226 225 225 224 223 221 219 221 220 220 221 223 224 223 224 228 226 221 219 220 221 226 234 240 243 251 261 260 257 262 265 263 263 269 284 311
219 218 218 222 226 229 232 233 232 229 226 224 223 226 227 227 228 228 227 225 225 224 221 220 221 223 226 233 239 240 242 251 258 255 260 271 272 265 265 267 272 295
220 219 219 224 230 234 234 235 237 235 230 226 226 230 233 234 233 230 227 227 225 220 215 215 219 223 228 235 240 241 245 256 260 255 260 271 271 266 266 265 266 279
224 223 223 227 233 238 236 234 236 236 233 232 234 236 237 237 237 233 231 230 225 219 216 218 223 226 228 233 238 245 252 259 259 252 254 262 264 266 268 265 264 270
226 225 225 228 234 239 237 234 235 235 234 236 240 242 240 238 238 237 237 234 226 222 224 227 232 232 232 235 240 247 252 253 250 245 249 258 262 265 269 268 264 265
228 227 226 229 234 238 238 236 236 236 235 238 240 241 241 239 241 243 243 240 233 230 233 236 239 240 239 240 244 248 249 248 247 245 250 257 260 261 265 268 265 264
228 227 225 229 234 238 239 238 237 237 238 240 241 240 241 242 244 245 246 244 242 242 245 245 245 245 243 244 248 250 249 249 248 247 250 254 257 257 258 260 264 266
226 226 225 229 236 240 239 238 238 238 239 242 241 239 241 244 246 247 246 244 244 249 252 250 248 248 247 246 249 250 249 248 247 248 250 252 253 253 252 252 257 264
224 226 226 229 235 239 239 238 239 239 239 242 243 241 241 243 246 248 247 245 245 249 251 250 248 249 250 248 248 249 248 246 245 246 249 250 251 252 251 251 254 260
224 227 228 230 234 237 239 239 240 240 240 241 245 246 244 242 244 247 248 248 247 246 247 247 247 249 251 250 249 250 250 247 245 245 247 249 251 253 254 255 257 259
223 227 229 231 234 237 240 241 241 241 242 242 245 248 248 245 244 245 247 248 247 246 246 247 248 248 249 250 250 251 252 251 249 247 248 250 252 254 255 256 260 262
218 225 230 232 235 238 240 242 243 243 244 245 246 248 249 249 247 245 245 246 247 247 247 249 250 249 249 250 251 251 252 253 253 252 252 253 254 255 256 258 260 261
212 215 222 228 234 237 238 240 241 241 241 243 246 250 252 251 248 245 244 245 247 249 250 251 250 249 249 251 253 253 252 253 255 255 254 254 254 256 258 261 261 260
217 216 218 221 227 234 238 238 240 240 238 236 239 245 252 254 251 247 245 246 248 250 251 251 249 247 247 249 252 255 255 255 256 257 257 257 257 258 259 260 261 261
230 226 225 224 226 232 237 238 241 242 240 236 233 236 245 252 253 250 247 247 248 249 250 250 249 248 248 249 251 253 255 256 257 259 260 260 259 260 260 260 261 261
230 230 231 233 234 237 240 241 242 243 240 237 233 231 237 245 250 250 248 247 248 249 249 249 248 250 252 253 253 254 254 255 256 258 260 260 260 261 261 262 262 262
212 224 231 235 237 239 241 242 242 240 239 237 233 229 231 237 244 247 247 247 248 249 250 249 250 252 255 256 257 256 255 254 255 258 258 258 259 259 260 263 264 265
110 161 220 236 242 244 244 245 245 244 245 246 244 240 238 238 240 242 244 246 248 249 251 251 252 255 257 258 259 259 258 256 255 256 257 257 258 259 260 262 264 266
65 62 69 90 161 245 244 240 241 245 250 256 258 256 253 249 246 244 243 245 246 249 251 252 255 258 259 259 260 260 260 257 255 255 255 256 257 259 260 262 264 266
48 42 39 44 48 43 41 63 151 200 218 236 253 263 265 259 253 249 247 247 247 250 252 253 255 259 262 262 262 263 262 260 257 255 254 255 257 259 261 263 265 267
42 43 35 19 8 12 18 22 25 38 138 198 226 255 282 279 266 256 251 249 251 253 254 254 255 257 259 261 262 263 263 263 261 258 256 255 256 258 260 262 265 267
47 54 53 45 34 32 31 21 6 2 7 8 347 307 320 317 300 281 263 254 255 258 259 260 258 255 254 255 257 259 260 260 261 261 259 257 256 257 259 261 264 266
45 50 52 56 59 49 33 18 4 357 355 1 6 6 2 347 324 309 291 272 265 265 268 269 264 258 257 258 260 262 262 260 259 259 259 258 258 258 259 260 262 265
38 42 44 50 59 49 27 17 15 13 8 10 16 14 16 16 343 321 314 311 307 297 290 282 274 270 268 268 269 270 271 269 266 264 261 259 259 259 259 260 261 263
34 36 38 41 44 38 26 21 22 24 19 23 32 28 27 33 17 349 338 342 352 358 348 324 309 304 295 288 285 282 279 279 278 275 270 265 263 262 262 262 263 265
36 34 34 34 32 27 23 24 33 44 47 49 52 48 43 40 33 20 12 13 23 31 26 7 350 344 325 309 307 302 295 292 287 282 279 276 274 272 269 269 269 269